Location: Bishop�s Knoyle
(51.0728°N, 2.1714°W)
Time: 04:41:34
(UTC+00:00)

Nauka - Pass Details

Date: 25 September 2021
Orbit: 418 x 423 km, 51.6° (Epoch: 18 October)

Event Time Altitude Azimuth Distance (km) Brightness Sun altitude
Rises 21:17:36 0° 285° (WNW) 2,370 ? -29.5°
Reaches altitude 10° 21:19:43 10° 280° (W) 1,505 ? -29.8°
Enters shadow 21:20:00 12° 279° (W) 1,394 ? -29.8°
